Location: Saint-Usage
(47.1052°N, 5.2587°E)
Time: 00:51:12
(UTC+02:00)

ISS - Pass Details

Date: 28 September 2021
Orbit: 417 x 423 km, 51.6° (Epoch: 24 October)

Event Time Altitude Azimuth Distance (km) Brightness Sun altitude
Rises 20:59:16 0° 293° (WNW) 2,365 1.8 -16.8°
Reaches altitude 10° 21:01:24 10° 299° (WNW) 1,501 0.3 -17.2°
Maximum altitude 21:04:41 49° 15° (NNE) 551 -3.2 -17.7°
Enters shadow 21:05:18 42° 52° (NE) 610 -3.3 -17.8°
